User: anonymous   Login
Location: Newark
(31.5350°N, 35.0986°E)
Time: 13:33:21
(UTC+00:00)
Language:

Vanguard 2 Rocket - Orbit

View from above orbital plane
View from above orbital plane
View from above satellite
View from above satellite

Ground track
Ground track

The orbit data is extracted from the following two-line orbital elements,

1    12U 59001B   19295.51116986 +.00000123 +00000-0 +50907-4 0  9992
2    12 032.9109 106.9384 1667063 259.7300 081.1927 11.44310567252600
Epoch (UTC): 22 October 2019 12:16:05
Eccentricity: 0.1667063
inclination: 32.9109°
perigee height: 553 km
apogee height: 3327 km
right ascension of ascending node: 106.9384°
argument of perigee: 259.7300°
revolutions per day: 11.44310567
mean anomaly at epoch: 81.1927°
orbit number at epoch: 25260

The dashed part of the orbit path shows where the satellite is in the earth's shadow,  

DLR